When you browse on this site, cookies collect data to enhance your experience and personalize the content and advertising you see.
Visit our Privacy Policy to learn more. By continuing to use the site, you agree to this use of cookies and data.
  • In United Kingdom
  • List of Countries
  • For 7 days
  • Water Temperature
  • Weather Map
  • Weather Widgets
  • user-avatar
    Login

    Hourly Weather Tapolca

    Today, 23 September, Monday

    Time Temperature Precipitation Wind Pressure Humidity
    00:00 +17°C° 0 mm 4 mps 748 mmHg 61%
    01:00 +15°C° 0 mm 4 mps 748 mmHg 69%
    02:00 +16°C° 0 mm 3 mps 748 mmHg 69%
    03:00 +16°C° 0 mm 3 mps 747 mmHg 68%
    04:00 +17°C° 0 mm 3 mps 747 mmHg 68%
    05:00 +17°C° 0 mm 3 mps 747 mmHg 67%
    06:00 +17°C° 0 mm 3 mps 747 mmHg 67%
    07:00 +17°C° 0 mm 3 mps 747 mmHg 71%
    08:00 +19°C° 0 mm 3 mps 747 mmHg 68%
    09:00 +20°C° 0 mm 3 mps 748 mmHg 65%
    10:00 +21°C° 0 mm 3 mps 748 mmHg 62%
    11:00 +22°C° 0 mm 3 mps 748 mmHg 61%
    12:00 +22°C° 0 mm 3 mps 748 mmHg 59%
    13:00 +23°C° 0 mm 4 mps 747 mmHg 57%
    14:00 +22°C° 0 mm 4 mps 747 mmHg 60%
    15:00 +21°C° 0 mm 5 mps 747 mmHg 64%
    16:00 +20°C° 0 mm 5 mps 747 mmHg 68%
    17:00 +17°C° 0 mm 5 mps 748 mmHg 70%
    18:00 +17°C° 0 mm 4 mps 748 mmHg 73%
    19:00 +14°C° 0 mm 3 mps 748 mmHg 76%
    20:00 +14°C° 0 mm 3 mps 748 mmHg 73%
    21:00 +14°C° 0 mm 3 mps 748 mmHg 71%
    22:00 +14°C° 0 mm 3 mps 748 mmHg 68%
    23:00 +14°C° 0 mm 3 mps 748 mmHg 69%

    Tomorrow, 24 September, Tuesday

    Time Temperature Precipitation Wind Pressure Humidity
    00:00 +13°C° 0 mm 3 mps 748 mmHg 71%
    01:00 +13°C° 0 mm 3 mps 749 mmHg 72%
    02:00 +13°C° 0 mm 3 mps 749 mmHg 74%
    03:00 +13°C° 0 mm 3 mps 748 mmHg 77%
    04:00 +12°C° 0 mm 3 mps 748 mmHg 79%
    05:00 +13°C° 0 mm 3 mps 748 mmHg 79%
    06:00 +14°C° 0 mm 4 mps 749 mmHg 78%
    07:00 +14°C° 0 mm 4 mps 749 mmHg 78%
    08:00 +17°C° 0 mm 4 mps 749 mmHg 69%
    09:00 +19°C° 0 mm 4 mps 749 mmHg 61%
    10:00 +21°C° 0 mm 4 mps 749 mmHg 53%
    11:00 +22°C° 0 mm 3 mps 749 mmHg 49%
    12:00 +24°C° 0 mm 3 mps 748 mmHg 46%
    13:00 +25°C° 0 mm 3 mps 748 mmHg 42%
    14:00 +24°C° 0 mm 2 mps 748 mmHg 43%
    15:00 +24°C° 0 mm 2 mps 747 mmHg 43%
    16:00 +24°C° 0 mm 2 mps 747 mmHg 43%
    17:00 +21°C° 0 mm 2 mps 747 mmHg 49%
    18:00 +19°C° 0 mm 2 mps 747 mmHg 54%
    19:00 +17°C° 0 mm 2 mps 747 mmHg 60%
    20:00 +16°C° 0 mm 2 mps 747 mmHg 65%
    21:00 +16°C° 0 mm 2 mps 747 mmHg 70%
    22:00 +15°C° 0 mm 2 mps 747 mmHg 75%
    23:00 +15°C° 0 mm 1 mps 747 mmHg 78%

    Day after tomorrow, 25 September, Wednesday

    Time Temperature Precipitation Wind Pressure Humidity
    00:00 +15°C° 0 mm 1 mps 747 mmHg 80%
    01:00 +14°C° 0 mm 1 mps 747 mmHg 82%
    02:00 +14°C° 0 mm 1 mps 747 mmHg 84%
    03:00 +14°C° 0 mm 1 mps 747 mmHg 86%
    04:00 +13°C° 0 mm 1 mps 746 mmHg 87%
    05:00 +14°C° 0 mm 1 mps 746 mmHg 85%
    06:00 +15°C° 0 mm 1 mps 746 mmHg 82%
    07:00 +15°C° 0 mm 1 mps 746 mmHg 80%
    08:00 +18°C° 0 mm 1 mps 747 mmHg 72%
    09:00 +19°C° 0 mm 2 mps 747 mmHg 64%
    10:00 +21°C° 0 mm 2 mps 747 mmHg 56%
    11:00 +23°C° 0 mm 2 mps 746 mmHg 52%
    12:00 +24°C° 0 mm 2 mps 746 mmHg 49%
    13:00 +25°C° 0 mm 2 mps 746 mmHg 45%
    14:00 +25°C° 0 mm 2 mps 746 mmHg 45%
    15:00 +25°C° 0 mm 1 mps 745 mmHg 45%
    16:00 +24°C° 0 mm 1 mps 745 mmHg 45%
    17:00 +22°C° 0.3 mm 1 mps 745 mmHg 57%
    18:00 +19°C° 0.3 mm 2 mps 746 mmHg 68%
    19:00 +17°C° 0.3 mm 3 mps 746 mmHg 80%
    20:00 +16°C° 0.2 mm 3 mps 746 mmHg 82%
    21:00 +15°C° 0.2 mm 4 mps 747 mmHg 84%
    22:00 +14°C° 0.2 mm 5 mps 747 mmHg 86%
    23:00 +14°C° 0.8 mm 5 mps 747 mmHg 88%

    26 September, Thursday

    Time Temperature Precipitation Wind Pressure Humidity
    00:00 +14°C° 0.8 mm 4 mps 747 mmHg 90%
    01:00 +13°C° 0.8 mm 4 mps 747 mmHg 92%
    02:00 +13°C° 2.1 mm 4 mps 747 mmHg 93%
    03:00 +13°C° 2.1 mm 4 mps 747 mmHg 93%
    04:00 +13°C° 2.1 mm 4 mps 747 mmHg 93%
    05:00 +13°C° 0.9 mm 3 mps 748 mmHg 92%
    06:00 +14°C° 0.9 mm 2 mps 748 mmHg 91%
    07:00 +14°C° 0.9 mm 2 mps 748 mmHg 90%
    08:00 +16°C° 0 mm 2 mps 748 mmHg 83%
    09:00 +17°C° 0 mm 3 mps 749 mmHg 76%
    10:00 +18°C° 0 mm 3 mps 749 mmHg 68%
    11:00 +19°C° 0.1 mm 4 mps 749 mmHg 62%
    12:00 +20°C° 0.1 mm 4 mps 749 mmHg 56%
    13:00 +22°C° 0.1 mm 4 mps 749 mmHg 50%
    14:00 +21°C° 0 mm 4 mps 749 mmHg 51%
    15:00 +21°C° 0 mm 4 mps 749 mmHg 51%
    16:00 +21°C° 0 mm 3 mps 749 mmHg 51%
    17:00 +20°C° 0 mm 3 mps 750 mmHg 57%
    18:00 +18°C° 0 mm 2 mps 750 mmHg 63%
    19:00 +17°C° 0 mm 2 mps 750 mmHg 69%
    20:00 +16°C° 0 mm 1 mps 750 mmHg 71%
    21:00 +16°C° 0 mm 1 mps 751 mmHg 74%
    22:00 +16°C° 0 mm 1 mps 751 mmHg 76%
    23:00 +15°C° 0 mm 1 mps 751 mmHg 79%

    27 September, Friday

    Time Temperature Precipitation Wind Pressure Humidity
    00:00 +15°C° 0 mm 1 mps 751 mmHg 81%
    01:00 +14°C° 0 mm 1 mps 751 mmHg 84%
    02:00 +14°C° 0 mm 1 mps 751 mmHg 84%
    03:00 +14°C° 0 mm 1 mps 752 mmHg 85%
    04:00 +12°C° 0 mm 0 mps 752 mmHg 86%
    05:00 +14°C° 0 mm 1 mps 752 mmHg 83%
    06:00 +15°C° 0 mm 1 mps 752 mmHg 81%
    07:00 +15°C° 0 mm 1 mps 752 mmHg 78%
    08:00 +16°C° 0 mm 1 mps 752 mmHg 74%
    09:00 +19°C° 0 mm 1 mps 752 mmHg 69%
    10:00 +20°C° 0 mm 1 mps 752 mmHg 65%
    11:00 +21°C° 0 mm 1 mps 752 mmHg 60%
    12:00 +23°C° 0 mm 2 mps 752 mmHg 55%
    13:00 +24°C° 0 mm 2 mps 751 mmHg 51%
    14:00 +24°C° 0 mm 2 mps 751 mmHg 51%
    15:00 +24°C° 0 mm 2 mps 751 mmHg 52%
    16:00 +24°C° 0 mm 2 mps 751 mmHg 52%
    17:00 +22°C° 0 mm 1 mps 751 mmHg 57%
    18:00 +21°C° 0 mm 1 mps 751 mmHg 63%
    19:00 +19°C° 0 mm 1 mps 751 mmHg 68%
    20:00 +19°C° 0 mm 1 mps 751 mmHg 69%
    21:00 +18°C° 0 mm 1 mps 751 mmHg 71%
    22:00 +18°C° 0 mm 1 mps 751 mmHg 72%
    23:00 +18°C° 0 mm 1 mps 751 mmHg 73%

    28 September, Saturday

    Time Temperature Precipitation Wind Pressure Humidity
    00:00 +16°C° 0 mm 2 mps 751 mmHg 74%
    01:00 +16°C° 0 mm 2 mps 751 mmHg 74%
    02:00 +16°C° 0 mm 2 mps 751 mmHg 75%
    03:00 +16°C° 0 mm 2 mps 751 mmHg 75%
    04:00 +15°C° 0 mm 1 mps 751 mmHg 76%
    05:00 +16°C° 0 mm 1 mps 751 mmHg 74%
    06:00 +16°C° 0 mm 1 mps 751 mmHg 72%
    07:00 +18°C° 0 mm 1 mps 751 mmHg 70%
    08:00 +19°C° 0 mm 1 mps 751 mmHg 64%
    09:00 +20°C° 0 mm 2 mps 751 mmHg 58%
    10:00 +23°C° 0 mm 2 mps 752 mmHg 52%
    11:00 +24°C° 0 mm 2 mps 751 mmHg 48%
    12:00 +25°C° 0 mm 2 mps 751 mmHg 45%
    13:00 +26°C° 0 mm 2 mps 751 mmHg 41%
    14:00 +26°C° 0 mm 2 mps 750 mmHg 41%
    15:00 +26°C° 0 mm 2 mps 750 mmHg 42%
    16:00 +26°C° 0 mm 1 mps 750 mmHg 43%
    17:00 +24°C° 0 mm 2 mps 750 mmHg 50%
    18:00 +21°C° 0 mm 3 mps 751 mmHg 58%
    19:00 +19°C° 0 mm 3 mps 751 mmHg 65%
    20:00 +19°C° 0 mm 3 mps 751 mmHg 68%
    21:00 +18°C° 0 mm 3 mps 751 mmHg 70%
    22:00 +18°C° 0 mm 3 mps 752 mmHg 72%
    23:00 +17°C° 0 mm 2 mps 751 mmHg 74%
    Show more